Location: Newark
(33.7579°N, 132.8129°E)
Time: 10:34:16
(UTC+00:00)

Hubble Space Telescope - Pass Details

Date: 17 November 2019
Orbit: 536 x 540 km, 28.5° (Epoch: 15 December)

Event Time Altitude Azimuth Distance (km) Brightness Sun altitude
Rises 10:28:33 0° 234° (SW) 2,667 5.1 -29.8°
Reaches altitude 10° 10:31:05 10° 220° (SW) 1,779 3.9 -30.3°
Enters shadow 10:31:54 14° 213° (SSW) 1,535 3.4 -30.5°
